| time (UTC) | temp F | wind direction | speed MPH | gust MPH | rain 1hr in | rain 24hr in | rain mn in | humidity % | barometer mb |
| 20260906080341 | 87 | 62 | 0.0 | 2.0 | 0.00 | 0.00 | 0.00 | 40 | 1018.0 |
| 20260906074841 | 88 | 62 | 0.0 | 2.0 | 0.00 | 0.00 | 0.00 | 40 | 1018.0 |
| 20260906073341 | 81 | 301 | 4.0 | 5.0 | 0.00 | 0.00 | 0.00 | 43 | 1018.0 |
| 20260906071841 | 82 | 301 | 4.0 | 5.0 | 0.00 | 0.00 | 0.00 | 43 | 1018.0 |
| 20260906070340 | 83 | 301 | 4.0 | 5.0 | 0.00 | 0.00 | 0.00 | 43 | 1018.0 |
| 20260906064840 | 84 | 301 | 4.0 | 5.0 | 0.00 | 0.00 | 0.00 | 43 | 1018.0 |
| 20260906063340 | 83 | 301 | 4.0 | 5.0 | 0.00 | 0.00 | 0.00 | 44 | 1018.0 |
| 20260906061839 | 82 | 301 | 4.0 | 5.0 | 0.00 | 0.00 | 0.00 | 46 | 1017.0 |
| 20260906060339 | 83 | 301 | 4.0 | 5.0 | 0.00 | 0.00 | 0.00 | 44 | 1017.0 |
| 20260906054839 | 80 | 301 | 4.0 | 5.0 | 0.00 | 0.00 | 0.00 | 50 | 1017.0 |
| 20260906053339 | 76 | 299 | 4.0 | 5.0 | 0.00 | 0.00 | 0.00 | 62 | 1017.0 |
| 20260906051839 | 75 | 299 | 4.0 | 5.0 | 0.00 | 0.00 | 0.00 | 61 | 1017.0 |
| 20260906050338 | 74 | 299 | 4.0 | 5.0 | 0.00 | 0.00 | 0.00 | 59 | 1017.0 |
| 20260906044838 | 73 | 299 | 4.0 | 5.0 | 0.00 | 0.00 | 0.00 | 62 | 1017.0 |
| 20260906043338 | 72 | 291 | 4.0 | 5.0 | 0.00 | 0.00 | 0.00 | 66 | 1016.0 |
| 20260906041837 | 71 | 291 | 4.0 | 5.0 | 0.00 | 0.00 | 0.00 | 67 | 1016.0 |
| 20260906040337 | 71 | 291 | 4.0 | 5.0 | 0.00 | 0.00 | 0.00 | 62 | 1016.0 |
| 20260906034837 | 69 | 291 | 4.0 | 5.0 | 0.00 | 0.00 | 0.00 | 83 | 1016.0 |
| 20260906033337 | 69 | 291 | 4.0 | 5.0 | 0.00 | 0.00 | 0.00 | 10 | 1016.0 |
| 20260906031837 | 72 | 306 | 4.0 | 6.0 | 0.00 | 0.00 | 0.00 | 70 | 1016.0 |
| 20260906030336 | 72 | 289 | 4.0 | 5.0 | 0.00 | 0.00 | 0.00 | 65 | 1016.0 |
| 20260906024837 | 73 | 289 | 4.0 | 5.0 | 0.00 | 0.00 | 0.00 | 67 | 1016.0 |
| 20260906023335 | 73 | 289 | 4.0 | 5.0 | 0.00 | 0.00 | 0.00 | 67 | 1016.0 |
| 20260906021834 | 73 | 289 | 4.0 | 5.0 | 0.00 | 0.00 | 0.00 | 65 | 1016.0 |
| 20260906020334 | 73 | 289 | 4.0 | 6.0 | 0.00 | 0.00 | 0.00 | 61 | 1016.0 |
| 20260906014834 | 70 | 289 | 4.0 | 6.0 | 0.00 | 0.00 | 0.00 | 80 | 1016.0 |
| 20260906013328 | 70 | 290 | 4.0 | 5.0 | 0.00 | 0.00 | 0.00 | 80 | 1016.0 |
| 20260906011828 | 73 | 290 | 4.0 | 5.0 | 0.00 | 0.00 | 0.00 | 63 | 1016.0 |
| 20260906010328 | 71 | 290 | 4.0 | 5.0 | 0.00 | 0.00 | 0.00 | 10 | 1016.0 |
| 20260906004828 | 72 | 290 | 4.0 | 5.0 | 0.00 | 0.00 | 0.00 | 66 | 1016.0 |
| 20260906003327 | 73 | 290 | 4.0 | 5.0 | 0.00 | 0.00 | 0.00 | 67 | 1016.0 |
| 20260906001827 | 73 | 277 | 2.0 | 5.0 | 0.00 | 0.00 | 0.00 | 69 | 1016.0 |
| 20260906000327 | 74 | 277 | 3.0 | 5.0 | 0.00 | 0.00 | 0.00 | 67 | 1016.0 |
| 20260905233326 | 73 | 279 | 3.0 | 5.0 | 0.00 | 0.00 | 0.00 | 74 | 1016.0 |
| 20260905231826 | 73 | 279 | 3.0 | 5.0 | 0.00 | 0.00 | 0.00 | 74 | 1016.0 |
| 20260905230326 | 73 | 279 | 1.0 | 5.0 | 0.00 | 0.00 | 0.00 | 73 | 1017.0 |
| 20260905224826 | 74 | 279 | 2.0 | 5.0 | 0.00 | 0.00 | 0.00 | 71 | 1017.0 |
| 20260905223325 | 74 | 279 | 3.0 | 5.0 | 0.00 | 0.00 | 0.00 | 69 | 1017.0 |
| 20260905221825 | 74 | 248 | 1.0 | 3.0 | 0.00 | 0.00 | 0.00 | 68 | 1016.0 |
| 20260905220325 | 74 | 143 | 5.0 | 5.0 | 0.00 | 0.00 | 0.00 | 66 | 1017.0 |
| 20260905214825 | 75 | 143 | 5.0 | 5.0 | 0.00 | 0.00 | 0.00 | 64 | 1017.0 |
| 20260905213324 | 76 | 143 | 5.0 | 5.0 | 0.00 | 0.00 | 0.00 | 64 | 1017.0 |
| 20260905211824 | 76 | 143 | 5.0 | 5.0 | 0.00 | 0.00 | 0.00 | 64 | 1017.0 |
| 20260905210324 | 75 | 143 | 5.0 | 5.0 | 0.00 | 0.00 | 0.00 | 64 | 1017.0 |
| 20260905204824 | 76 | 143 | 5.0 | 5.0 | 0.00 | 0.00 | 0.00 | 63 | 1017.0 |
| 20260905203323 | 76 | 143 | 5.0 | 5.0 | 0.00 | 0.00 | 0.00 | 62 | 1017.0 |
| 20260905201823 | 77 | 143 | 5.0 | 5.0 | 0.00 | 0.00 | 0.00 | 61 | 1017.0 |
| 20260905200323 | 79 | 143 | 5.0 | 5.0 | 0.00 | 0.00 | 0.00 | 61 | 1017.0 |
| 20260905194817 | 79 | 143 | 5.0 | 5.0 | 0.00 | 0.00 | 0.00 | 64 | 1017.0 |
| 20260905193317 | 79 | 143 | 5.0 | 5.0 | 0.00 | 0.00 | 0.00 | 59 | 1017.0 |
| 20260905191817 | 80 | 143 | 5.0 | 5.0 | 0.00 | 0.00 | 0.00 | 60 | 1017.0 |
| 20260905190317 | 81 | 143 | 5.0 | 5.0 | 0.00 | 0.00 | 0.00 | 65 | 1017.0 |
| 20260905184816 | 80 | 143 | 5.0 | 5.0 | 0.00 | 0.00 | 0.00 | 74 | 1017.0 |
| 20260905183316 | 81 | 143 | 5.0 | 5.0 | 0.00 | 0.00 | 0.00 | 73 | 1017.0 |
| 20260905181817 | 82 | 143 | 5.0 | 5.0 | 0.00 | 0.00 | 0.00 | 70 | 1016.0 |
| 20260905180316 | 83 | 143 | 5.0 | 5.0 | 0.00 | 0.00 | 0.00 | 66 | 1016.0 |
| 20260905174815 | 84 | 143 | 5.0 | 5.0 | 0.00 | 0.00 | 0.00 | 60 | 1016.0 |
| 20260905173315 | 84 | 143 | 5.0 | 5.0 | 0.00 | 0.00 | 0.00 | 61 | 1017.0 |
| 20260905171815 | 84 | 143 | 5.0 | 5.0 | 0.00 | 0.00 | 0.00 | 63 | 1016.0 |
| 20260905170315 | 83 | 143 | 5.0 | 5.0 | 0.00 | 0.00 | 0.00 | 73 | 1016.0 |
| 20260905164815 | 87 | 146 | 5.0 | 5.0 | 0.00 | 0.00 | 0.00 | 56 | 1016.0 |
| 20260905161814 | 88 | 146 | 5.0 | 5.0 | 0.00 | 0.00 | 0.00 | 59 | 1016.0 |
| 20260905160314 | 87 | 146 | 5.0 | 5.0 | 0.00 | 0.00 | 0.00 | 72 | 1016.0 |
| 20260905154814 | 88 | 146 | 5.0 | 6.0 | 0.00 | 0.00 | 0.00 | 72 | 1016.0 |
| 20260905153313 | 89 | 140 | 5.0 | 5.0 | 0.00 | 0.00 | 0.00 | 53 | 1016.0 |
| 20260905151813 | 90 | 140 | 5.0 | 5.0 | 0.00 | 0.00 | 0.00 | 50 | 1016.0 |
| 20260905150313 | 89 | 140 | 5.0 | 5.0 | 0.00 | 0.00 | 0.00 | 49 | 1016.0 |
| 20260905144812 | 89 | 140 | 5.0 | 5.0 | 0.00 | 0.00 | 0.00 | 41 | 1016.0 |
| 20260905141811 | 90 | 140 | 5.0 | 5.0 | 0.00 | 0.00 | 0.00 | 42 | 1016.0 |
| 20260905140311 | 90 | 140 | 5.0 | 5.0 | 0.00 | 0.00 | 0.00 | 39 | 1016.0 |
| 20260905134810 | 90 | 140 | 5.0 | 5.0 | 0.00 | 0.00 | 0.00 | 40 | 1017.0 |
| 20260905133310 | 91 | 140 | 5.0 | 5.0 | 0.00 | 0.00 | 0.00 | 42 | 1016.0 |
| 20260905131810 | 90 | 140 | 5.0 | 5.0 | 0.00 | 0.00 | 0.00 | 40 | 1017.0 |
| 20260905130310 | 91 | 140 | 5.0 | 5.0 | 0.00 | 0.00 | 0.00 | 39 | 1017.0 |
| 20260905124809 | 90 | 140 | 5.0 | 5.0 | 0.00 | 0.00 | 0.00 | 37 | 1017.0 |
| 20260905123309 | 90 | 140 | 5.0 | 5.0 | 0.00 | 0.00 | 0.00 | 40 | 1017.0 |
| 20260905121809 | 90 | 140 | 5.0 | 5.0 | 0.00 | 0.00 | 0.00 | 39 | 1017.0 |
| 20260905120309 | 90 | 140 | 5.0 | 5.0 | 0.00 | 0.00 | 0.00 | 42 | 1017.0 |
| 20260905114808 | 90 | 140 | 5.0 | 5.0 | 0.00 | 0.00 | 0.00 | 43 | 1017.0 |
| 20260905113308 | 89 | 140 | 5.0 | 5.0 | 0.00 | 0.00 | 0.00 | 46 | 1017.0 |
| 20260905111808 | 89 | 140 | 5.0 | 5.0 | 0.00 | 0.00 | 0.00 | 49 | 1017.0 |
| 20260905110308 | 90 | 140 | 6.0 | 6.0 | 0.00 | 0.00 | 0.00 | 50 | 1018.0 |
| 20260905104807 | 91 | 140 | 6.0 | 6.0 | 0.00 | 0.00 | 0.00 | 35 | 1018.0 |
| 20260905103307 | 92 | 140 | 6.0 | 6.0 | 0.00 | 0.00 | 0.00 | 52 | 1018.0 |
| 20260905101807 | 88 | 173 | 1.0 | 4.0 | 0.00 | 0.00 | 0.00 | 60 | 1018.0 |
| 20260905100306 | 88 | 173 | 1.0 | 4.0 | 0.00 | 0.00 | 0.00 | 59 | 1018.0 |
| 20260905094806 | 88 | 173 | 1.0 | 4.0 | 0.00 | 0.00 | 0.00 | 57 | 1018.0 |
| 20260905093306 | 87 | 173 | 1.0 | 4.0 | 0.00 | 0.00 | 0.00 | 72 | 1019.0 |
| 20260905091806 | 87 | 173 | 1.0 | 4.0 | 0.00 | 0.00 | 0.00 | 73 | 1019.0 |
| 20260905090306 | 87 | 173 | 1.0 | 4.0 | 0.00 | 0.00 | 0.00 | 74 | 1019.0 |
| 20260905084805 | 87 | 173 | 2.0 | 4.0 | 0.00 | 0.00 | 0.00 | 75 | 1019.0 |
| 20260905083305 | 83 | 297 | 1.0 | 1.0 | 0.00 | 0.00 | 0.00 | 76 | 1019.0 |
| 20260905081805 | 83 | 297 | 1.0 | 1.0 | 0.00 | 0.00 | 0.00 | 75 | 1019.0 |